Location: Newark
(48.3008°N, 3.9542°W)
Time: 05:16:11
(UTC+00:00)

N. Korean satellite - Visible Passes

Search period start: 13 November 2019 00:00
Search period end: 23 November 2019 00:00
Orbit: 456 x 506 km, 97.2° (Epoch: 12 November)

Date Brightness Start Highest point End Pass type
(mag) Time Alt. Az. Time Alt. Az. Time Alt. Az.
13 Nov 9.0 05:34:28 10° NE 05:37:42 27° E 05:40:54 10° SSE visible
13 Nov 8.3 17:46:22 10° SSW 17:49:44 37° W 17:53:10 10° NNW visible
14 Nov 10.0 05:09:57 10° NE 05:12:07 15° E 05:14:17 10° SE visible
14 Nov 6.9 06:42:10 10° N 06:45:48 48° WNW 06:49:22 10° SSW visible
14 Nov 6.8 17:20:41 10° S 17:24:17 75° WSW 17:27:58 10° NNW visible
15 Nov 6.7 06:16:43 10° NNE 06:20:28 85° ESE 06:24:09 10° SSW visible
15 Nov 10.1 18:30:58 10° WSW 18:32:40 13° W 18:34:25 10° WNW visible
16 Nov 8.0 05:51:28 10° NNE 05:55:03 42° E 05:58:33 10° S visible
16 Nov 9.2 18:04:06 10° SSW 18:07:04 24° W 18:10:06 10° NW visible
17 Nov 9.3 05:26:32 10° NE 05:29:31 22° E 05:32:28 10° SSE visible
17 Nov 7.9 17:38:03 10° S 17:41:33 46° W 17:45:08 10° NNW visible
18 Nov 10.2 05:02:22 10° ENE 05:03:54 12° E 05:05:24 10° ESE visible
18 Nov 6.6 06:34:00 10° N 06:37:40 59° WNW 06:41:18 10° SSW visible
18 Nov 6.6 17:12:30 10° SSE 17:16:08 87° ENE 17:19:51 10° NNW visible
19 Nov 7.0 06:08:35 10° NNE 06:12:19 69° ESE 06:15:58 10° S visible
19 Nov 9.9 18:22:08 10° SW 18:24:26 16° W 18:26:46 10° NW visible
20 Nov 8.5 05:43:25 10° NNE 05:46:50 34° E 05:50:12 10° SSE visible
20 Nov 8.8 17:55:37 10° SSW 17:58:50 29° W 18:02:08 10° NNW visible
21 Nov 9.6 05:18:38 10° NE 05:21:17 18° E 05:23:53 10° SE visible
21 Nov 7.2 06:51:22 10° N 06:54:49 37° WNW 06:58:13 10° SW visible
21 Nov 7.4 17:29:44 10° S 17:33:21 57° W 17:37:02 10° NNW visible
22 Nov 6.5 06:25:48 10° N 06:29:30 74° WNW 06:33:09 10° SSW visible
22 Nov 6.6 17:04:18 10° SSE 17:07:57 70° ENE 17:11:40 10° N visible
22 Nov 10.4 18:41:16 10° W 18:41:49 10° W 18:42:22 10° WNW visible
